Flight Track Log - Related Links

Times and Time Zones

All times are in EDT time to prevent confusion due to time zone crossing. See the DAL1018 flight status page for this flight to view local times or setup timezone preferences in your user account.

Time Position Orientation Groundspeed Altitude Reporting Facility
EDT Latitude Longitude Course Direction KTS MPH feet Rate Location/Type
Mon 10:24:22 AM 33.6500 -84.5000 234° Southwest 215 247 3,100  Level Atlanta TRACON
Mon 10:25:22 AM 33.6667 -84.6000 281° West 259 298 5,800 2,750 Climbing Atlanta TRACON
Mon 10:26:00 AM 33.8001 -84.3971 270° West  Level FlightAware Approximate
Mon 10:26:22 AM 33.6833 -84.6833 284° West 271 312 8,600  Level Atlanta TRACON
Mon 10:27:00 AM 33.8000 -84.5460 270° West  Level FlightAware Approximate
Mon 10:28:00 AM 33.7393 -84.6717 234° Southwest  Level FlightAware Approximate
Mon 10:28:43 AM 33.6369 -84.8922 255° West 304 350 13,300  Level Atlanta Center
Mon 10:29:00 AM 33.6657 -84.7912 234° Southwest  Level FlightAware Approximate
Mon 10:29:43 AM 33.5903 -84.9864 239° Southwest 318 366 15,400  Level Atlanta Center
Mon 10:30:43 AM 33.5414 -85.0881 240° Southwest 341 392 17,500 1,900 Climbing Atlanta Center
Mon 10:31:43 AM 33.4925 -85.1872 239° Southwest 354 407 19,200 1,550 Climbing Atlanta Center
Mon 10:32:43 AM 33.4600 -85.3061 252° West 368 423 20,600 1,500 Climbing Atlanta Center
Mon 10:33:43 AM 33.4358 -85.4303 257° West 382 440 22,200 1,367 Climbing Atlanta Center
Mon 10:35:00 AM 33.3916 -85.6129 254° West  Level FlightAware Approximate
Mon 10:35:43 AM 33.3889 -85.6708 254° West 390 449 24,700  Level Atlanta Center
Mon 10:36:43 AM 33.3556 -85.8144 255° West 404 465 25,300 650 Climbing Atlanta Center
Mon 10:37:43 AM 33.2994 -85.9450 243° Southwest 417 480 26,000 900 Climbing Atlanta Center
Mon 10:38:43 AM 33.2039 -86.0447 221° Southwest 437 503 27,100 1,200 Climbing Atlanta Center
Mon 10:39:43 AM 33.1022 -86.1442 219° Southwest 451 519 28,400 1,200 Climbing Atlanta Center
Mon 10:40:43 AM 32.9981 -86.2383 217° Southwest 465 535 29,500 1,100 Climbing Atlanta Center
Mon 10:41:43 AM 32.8983 -86.3397 220° Southwest 477 549 30,600 1,000 Climbing Atlanta Center
Mon 10:42:43 AM 32.7961 -86.4333 218° Southwest 477 549 31,500 850 Climbing Atlanta Center
Mon 10:43:43 AM 32.7006 -86.5269 220° Southwest 477 549 32,300 600 Climbing Atlanta Center
Mon 10:44:43 AM 32.6067 -86.6156 218° Southwest 477 549 32,700 450 Climbing Atlanta Center
Mon 10:45:43 AM 32.5044 -86.7136 219° Southwest 477 549 33,200 500 Climbing Atlanta Center
Mon 10:46:43 AM 32.4000 -86.8136 219° Southwest 482 555 33,700 400 Climbing Atlanta Center
Mon 10:47:43 AM 32.2997 -86.9089 219° Southwest 477 549 34,000 150 Climbing Atlanta Center
Mon 10:48:43 AM 32.1972 -87.0061 219° Southwest 477 549 34,000  Level Atlanta Center
Mon 10:49:43 AM 32.0906 -87.1033 218° Southwest 484 557 34,000  Level Atlanta Center
Mon 10:50:43 AM 31.9900 -87.1978 219° Southwest 479 551 34,000  Level Atlanta Center
Mon 10:51:43 AM 31.8853 -87.2942 218° Southwest 479 551 34,000  Level Atlanta Center
Mon 10:52:43 AM 31.7803 -87.4003 221° Southwest 474 545 34,000  Level Atlanta Center
Mon 10:55:07 AM 31.5358 -87.6175 217° Southwest 463 533 34,000  Level Houston Center
Mon 10:56:09 AM 31.4356 -87.7103 218° Southwest 460 529 34,000  Level Houston Center
Mon 10:57:11 AM 31.3383 -87.8081 221° Southwest 461 531 34,000  Level Houston Center
Mon 10:58:13 AM 31.2558 -87.9228 230° Southwest 460 529 34,000  Level Houston Center
Mon 10:59:16 AM 31.1722 -88.0369 229° Southwest 453 521 34,000  Level Houston Center
Mon 11:00:18 AM 31.0892 -88.1506 230° Southwest 458 527 34,000 -871 Level Houston Center
Mon 11:01:20 AM 30.9878 -88.2881 229° Southwest 467 537 32,200 -1,355 Descending Houston Center
Mon 11:02:22 AM 30.9019 -88.4058 230° Southwest 474 545 31,200 -919 Descending Houston Center
Mon 11:03:24 AM 30.8172 -88.5186 229° Southwest 464 534 30,300 -919 Descending Houston Center
Mon 11:04:26 AM 30.7272 -88.6403 229° Southwest 461 531 29,300 -1,306 Descending Houston Center
Mon 11:05:28 AM 30.6525 -88.7561 233° Southwest 448 516 27,600 -1,887 Descending Houston Center
Mon 11:06:30 AM 30.5822 -88.8675 234° Southwest 432 497 25,400 -2,226 Descending Houston Center
Mon 11:07:32 AM 30.5108 -88.9936 237° Southwest 417 480 23,000 -2,226 Descending Houston Center
Mon 11:08:34 AM 30.4483 -89.0994 236° Southwest 400 460 20,800 -2,032 Descending Houston Center
Mon 11:09:36 AM 30.3883 -89.2019 236° Southwest 386 444 18,800 -1,920 Descending Houston Center
Mon 11:10:39 AM 30.3331 -89.3022 237° Southwest 373 429 16,800 -1,927 Descending Houston Center
Mon 11:11:25 AM 30.2897 -89.3864 239° Southwest 356 410 15,300 -2,043 Descending Houston Center
Mon 11:12:13 AM 30.2614 -89.4719 249° West 333 383 13,600 -1,846 Descending Houston Center
Mon 11:12:43 AM 30.2483 -89.5022 243° Southwest 340 391 12,900 -1,869 Descending Houston Center
Mon 11:13:14 AM 30.2211 -89.5703 245° Southwest 332 382 11,700 -1,935 Descending Houston Center
Mon 11:13:45 AM 30.2025 -89.6183 246° West 330 380 10,900 -1,032 Descending Houston Center
Mon 11:14:47 AM 30.1858 -89.7100 258° West 293 337 10,100 -1,258 Descending Houston Center
Mon 11:15:49 AM 30.1761 -89.7975 263° West 275 316 8,300 -1,839 Descending Houston Center
Mon 11:16:51 AM 30.1683 -89.8819 264° West 266 306 6,300 -1,645 Descending Houston Center
Mon 11:17:53 AM 30.1589 -89.9644 262° West 261 300 4,900 -1,161 Descending Houston Center
Mon 11:18:55 AM 30.1508 -90.0442 263° West 256 295 3,900 -1,016 Descending Houston Center
Mon 11:19:57 AM 30.1264 -90.1086 246° West 232 267 2,800 -1,065 Descending Houston Center

Login

Don't have an account? Register now (free) for customized features, flight alerts, and more!